CW3643 Weather Reports


time (UTC)temp
C
wind
direction
speed
KPH
gust
KPH
rain 1hr
cm
rain 24hr
cm
rain mn
cm
humidity
%
barometer
mb
20260510032551 13 233 11.3 25.7 0.20 4.60 0.10 81 1008.7
20260510032034 13 243 9.7 22.5 0.10 4.50 0.08 80 1008.6
20260510031512 13 256 14.5 35.4 0.20 4.50 0.08 79 1008.7
20260510031017 13 228 12.9 46.7 0.20 4.50 0.08 78 1008.6
20260510030523 13 253 35.4 46.7 0.20 4.50 0.08 77 1008.6
20260510030021 13 261 22.5 45.1 0.20 4.50 0.08 80 1008.7
20260510025537 14 251 4.8 17.7 0.10 4.39 0.05 82 1008.4
20260510025015 14 251 4.8 16.1 0.10 4.39 0.05 83 1008.3
20260510024512 14 220 4.8 20.9 0.10 4.39 0.05 83 1008.3
20260510024016 13 219 6.4 20.9 0.10 4.50 0.05 83 1008.2
20260510023514 13 200 4.8 9.7 0.10 4.50 0.05 83 1008.2
20260510023020 13 226 4.8 9.7 0.10 4.50 0.05 83 1008.3
20260510022528 13 195 3.2 16.1 0.10 4.50 0.05 83 1008.3
20260510022033 13 207 8.0 16.1 0.10 4.50 0.05 83 1008.3
20260510021522 13 224 4.8 11.3 0.00 4.39 0.03 83 1008.4
20260510021026 13 221 4.8 11.3 0.00 4.39 0.03 83 1008.4
20260510020544 13 204 3.2 12.9 0.00 4.39 0.03 83 1008.5
20260510020028 13 218 3.2 12.9 0.00 4.39 0.03 83 1008.5
20260510015525 13 298 3.2 14.5 0.00 4.39 0.03 83 1008.5
20260510015030 13 161 6.4 14.5 0.00 4.39 0.03 83 1008.5
20260510014529 13 199 6.4 16.1 0.00 4.39 0.03 83 1008.6
20260510014026 13 207 6.4 17.7 0.00 7.11 0.03 83 1008.6
20260510013512 13 209 4.8 17.7 0.00 7.11 0.03 83 1008.7
20260510013043 13 165 8.0 14.5 0.00 7.11 0.03 83 1008.8
20260510012518 13 185 8.0 12.9 0.00 7.11 0.03 83 1008.8
20260510012017 13 232 6.4 12.9 0.00 7.11 0.03 83 1008.8
20260510011534 13 195 6.4 14.5 0.00 7.11 0.03 83 1008.8
20260510011012 13 207 6.4 12.9 0.00 7.11 0.03 83 1008.9
20260510010515 13 195 4.8 11.3 0.00 7.11 0.03 82 1009.0
20260510010013 13 205 6.4 12.9 0.00 7.11 0.03 82 1009.1
20260510005537 13 151 6.4 12.9 0.00 7.11 0.03 82 1009.1
20260510005035 13 213 4.8 9.7 0.00 7.11 0.03 82 1009.2
20260510004512 13 199 4.8 12.9 0.00 7.11 0.03 81 1009.4
20260510004037 13 216 3.2 12.9 0.00 9.09 0.03 81 1009.4
20260510003016 13 185 6.4 24.1 0.10 9.09 0.03 80 1009.3
20260510002512 13 195 16.1 24.1 0.10 9.09 0.03 79 1009.3
20260510002037 13 201 8.0 17.7 0.10 9.09 0.03 78 1009.6
20260510001515 13 229 6.4 16.1 0.10 9.09 0.03 79 1009.5
20260510001013 13 280 8.0 19.3 0.10 9.09 0.03 79 1009.5
20260510000537 13 190 8.0 20.9 0.10 9.09 0.03 79 1009.5
20260510000014 13 190 8.0 20.9 0.10 9.09 0.03 79 1009.6
20260509235527 13 218 6.4 14.5 0.10 9.09 0.03 79 1009.6
20260509235013 13 199 6.4 14.5 0.10 9.09 0.03 80 1009.5
20260509234030 14 157 4.8 20.9 0.10 9.09 0.03 80 1009.6
20260509233535 15 201 9.7 20.9 0.10 9.09 0.03 80 1009.5
20260509233026 15 190 6.4 14.5 0.00 8.99 0.00 80 1009.7
20260509232515 15 190 6.4 14.5 0.00 8.99 0.00 80 1009.5
20260509232021 15 190 3.2 14.5 0.00 8.99 0.00 80 1009.6
20260509231544 15 190 8.0 20.9 0.00 8.99 0.00 79 1009.6
20260509231036 15 190 11.3 20.9 0.00 8.99 0.00 79 1009.6
20260509230520 15 190 6.4 14.5 0.00 8.99 0.00 78 1009.6
20260509230025 15 190 8.0 22.5 0.00 8.99 0.00 78 1009.7
20260509225521 15 190 6.4 22.5 0.00 8.99 0.00 78 1009.6
20260509225019 15 190 3.2 19.3 0.00 8.99 0.00 77 1009.6
20260509224523 15 190 6.4 19.3 0.00 8.99 0.00 78 1009.6
20260509224026 15 190 8.0 16.1 0.00 8.99 2.29 78 1009.7
20260509223511 15 190 8.0 19.3 0.00 8.99 2.29 79 1009.6
20260509223020 15 190 8.0 20.9 0.00 8.99 2.29 80 1009.7
20260509222050 15 190 3.2 22.5 0.00 8.99 2.29 80 1009.6
20260509221514 15 190 6.4 19.3 0.00 8.99 2.29 81 1009.5
20260509221012 15 190 8.0 22.5 0.00 8.99 2.29 81 1009.4
20260509220518 15 190 8.0 24.1 0.00 8.99 2.29 81 1009.4
20260509220037 15 190 8.0 25.7 0.00 8.99 2.29 81 1009.5
20260509215531 15 190 8.0 25.7 0.00 8.99 2.29 80 1009.5
20260509215018 15 190 8.0 29.0 0.00 8.99 2.29 80 1009.4
20260509214516 15 190 8.0 29.0 0.00 8.99 2.29 81 1009.5
20260509214014 15 190 4.8 22.5 0.10 8.99 2.29 82 1009.4
20260509213540 15 190 8.0 22.5 0.20 8.99 2.29 82 1009.3
20260509213019 15 190 4.8 19.3 0.20 8.99 2.29 82 1009.3
20260509212512 15 190 6.4 19.3 0.20 8.99 2.29 82 1009.1
20260509212038 15 190 4.8 16.1 0.20 8.99 2.29 82 1009.1
20260509211516 15 190 3.2 24.1 0.20 8.99 2.29 82 1009.1
20260509211013 15 190 11.3 20.9 0.20 8.99 2.29 83 1009.1
20260509210519 15 190 6.4 16.1 0.20 8.99 2.29 83 1009.0
20260509210017 15 190 6.4 24.1 0.20 8.99 2.29 83 1009.1
20260509205534 15 190 9.7 24.1 0.20 8.99 2.29 83 1009.0
20260509205027 15 190 4.8 9.7 0.20 8.99 2.29 82 1008.9
20260509204538 15 190 8.0 0.0 0.00 0.00 2.29 82 1008.7
20260509204012 15 190 6.4 20.9 0.00 8.89 2.24 82 1008.8
20260509203518 15 190 11.3 20.9 0.00 8.89 2.24 82 1008.6
20260509203016 15 190 8.0 20.9 0.00 8.89 2.24 82 1008.7
20260509202532 15 190 9.7 20.9 0.00 8.89 2.24 81 1008.6
20260509202038 15 190 6.4 17.7 0.00 8.89 2.24 81 1008.6
20260509201522 15 190 8.0 16.1 0.00 8.89 2.24 81 1008.6
20260509201019 15 190 4.8 16.1 0.00 8.89 2.24 81 1008.6
20260509200545 15 190 4.8 20.9 0.00 8.89 2.24 81 1008.5
20260509200021 15 190 3.2 17.7 0.00 8.89 2.24 81 1008.5
20260509195517 15 190 8.0 17.7 0.00 8.89 2.24 80 1008.4
20260509195123 15 190 6.4 17.7 0.00 8.89 2.24 80 1008.4
20260509194021 15 190 8.0 19.3 0.00 8.89 2.24 80 1008.3
20260509193519 15 190 9.7 19.3 0.00 8.89 2.24 79 1008.1
20260509193043 15 190 4.8 19.3 0.00 8.89 2.24 79 1008.2
20260509192518 15 190 6.4 20.9 0.00 8.89 2.24 79 1008.2
20260509192042 15 190 6.4 19.3 0.00 8.89 2.24 78 1008.2
20260509191540 16 190 6.4 22.5 0.00 8.89 2.24 78 1008.2
20260509191023 16 190 8.0 25.7 0.00 8.89 2.24 77 1008.1
20260509190521 16 190 11.3 25.7 0.00 8.89 2.24 77 1008.1
20260509190025 16 190 8.0 20.9 0.00 8.89 2.24 77 1008.0
20260509185027 16 190 9.7 22.5 0.00 8.89 2.24 76 1008.0
20260509184524 16 190 6.4 27.4 0.00 8.89 2.24 76 1007.8
20260509184022 16 190 11.3 24.1 0.00 8.89 2.24 76 1007.7
20260509183516 16 190 8.0 24.1 0.00 8.89 2.24 76 1007.5
20260509182512 16 222 12.9 27.4 0.00 8.89 2.24 77 1007.5
20260509182017 16 132 6.4 25.7 0.00 8.89 2.24 77 1007.5
20260509181515 16 190 12.9 29.0 0.00 8.89 2.24 77 1007.5
20260509181040 16 243 8.0 24.1 0.00 8.89 2.24 77 1007.4
20260509180544 16 205 11.3 25.7 0.00 8.89 2.24 77 1007.5
20260509180037 16 190 11.3 25.7 0.00 8.89 2.24 77 1007.4
20260509175511 16 131 9.7 29.0 0.00 8.89 2.24 78 1007.4
20260509175037 16 227 11.3 20.9 0.00 8.89 2.24 78 1007.3
20260509174517 16 228 11.3 30.6 0.00 8.89 2.24 78 1007.3
20260509174023 16 37 8.0 20.9 0.00 8.89 2.24 78 1007.2
20260509173016 16 190 12.9 19.3 0.00 8.89 2.24 77 1007.1
20260509172530 16 249 4.8 20.9 0.10 8.89 2.24 78 1007.1
20260509172026 16 185 11.3 20.9 0.10 8.89 2.24 78 1007.0
20260509171551 16 244 6.4 20.9 0.10 8.89 2.24 79 1007.0
20260509171036 16 190 6.4 20.9 0.10 8.89 2.24 79 1006.9
20260509170513 16 190 4.8 19.3 0.10 8.89 2.24 80 1006.9
20260509170012 15 239 9.7 25.7 0.10 8.89 2.24 80 1006.9
20260509165528 15 228 12.9 27.4 0.10 8.89 2.24 81 1006.9
20260509165026 15 261 12.9 27.4 0.20 8.89 2.24 82 1006.9
20260509164537 15 225 11.3 30.6 0.30 8.89 2.24 83 1006.9
20260509164016 15 190 14.5 30.6 0.41 8.89 2.24 83 1006.7
20260509163514 15 190 12.9 30.6 0.51 8.89 2.24 83 1006.7
20260509163011 15 283 11.3 24.1 0.61 8.89 2.24 83 1006.7
20260509162555 15 241 4.8 22.5 0.61 8.79 2.21 83 1006.7
20260509162011 14 270 11.3 22.5 0.99 8.79 2.21 83 1006.6
20260509161517 14 259 9.7 20.9 1.60 8.79 2.21 83 1006.5
20260509161043 14 264 9.7 20.9 1.60 8.79 2.21 83 1006.5
20260509160520 14 259 9.7 25.7 1.60 8.79 2.21 84 1006.5
20260509160025 13 228 17.7 29.0 1.60 8.79 2.21 83 1006.5
20260509155515 13 255 8.0 25.7 1.60 8.79 2.21 83 1006.6
20260509155021 13 218 11.3 30.6 1.50 8.71 2.18 83 1006.5
20260509154516 13 247 17.7 29.0 1.40 8.61 2.16 83 1006.6
20260509154041 14 190 12.9 22.5 1.30 8.51 2.13 82 1006.6
20260509153021 14 190 14.5 37.0 1.09 8.31 2.08 80 1006.3
20260509152517 15 190 22.5 49.9 0.99 8.20 2.06 78 1006.4
20260509152016 16 190 29.0 49.9 0.61 7.80 1.96 78 1006.5
20260509151520 17 190 19.3 38.6 0.00 7.19 1.80 77 1006.2
20260509151017 17 190 16.1 38.6 0.00 7.19 1.80 75 1005.7
20260509150516 17 190 14.5 35.4 0.00 7.19 1.80 73 1005.6
20260509150015 17 190 19.3 35.4 0.00 7.19 1.80 73 1005.5
20260509145510 17 80 12.9 29.0 0.00 7.19 1.80 74 1005.7
20260509145029 17 190 12.9 32.2 0.00 7.19 1.80 73 1005.7
20260509144534 17 232 12.9 32.2 0.00 7.19 1.80 73 1005.7
20260509144012 18 248 11.3 30.6 0.00 7.19 1.80 72 1005.7
20260509143537 18 245 12.9 32.2 0.00 7.19 1.80 72 1005.6
20260509143036 18 190 14.5 30.6 0.00 7.19 1.80 70 1005.6
20260509142531 18 235 11.3 35.4 0.00 7.19 1.80 71 1005.6
20260509142028 18 200 17.7 35.4 0.00 7.19 1.80 72 1005.5
20260509141527 18 190 12.9 30.6 0.00 7.19 1.80 72 1005.4
20260509141014 18 236 9.7 37.0 0.00 7.19 1.80 72 1005.5
20260509140558 18 248 17.7 37.0 0.00 7.19 1.80 71 1005.3
20260509140022 18 195 12.9 32.2 0.00 7.19 1.80 72 1005.3
20260509135512 18 158 16.1 32.2 0.00 7.19 1.80 72 1005.2
20260509135024 18 161 9.7 38.6 0.00 7.19 1.80 73 1005.3
20260509134530 18 253 19.3 43.5 0.00 7.19 1.80 73 1005.1
20260509134028 18 218 14.5 38.6 0.00 7.19 1.80 72 1005.3
20260509133533 18 164 19.3 38.6 0.00 7.19 1.80 72 1005.2
20260509133011 17 226 14.5 38.6 0.00 7.19 1.80 72 1005.0
20260509132528 17 190 19.3 41.8 0.00 7.19 1.80 72 1005.2
20260509132046 17 230 16.1 46.7 0.00 7.19 1.80 71 1005.1
20260509131531 18 199 14.5 40.2 0.00 7.19 1.80 71 1004.9
20260509131050 18 199 14.5 40.2 0.00 7.19 1.80 71 1005.1
20260509130520 17 180 12.9 40.2 0.00 7.19 1.80 71 1005.1
20260509130025 17 151 19.3 40.2 0.00 7.19 1.80 71 1005.0
20260509125519 17 204 11.3 41.8 0.00 7.19 1.80 72 1005.0
20260509125017 17 208 14.5 33.8 0.00 7.19 1.80 72 1005.0
20260509124024 17 190 17.7 37.0 0.00 7.19 1.80 73 1004.9
20260509123521 17 190 9.7 29.0 0.00 7.19 1.80 73 1005.2
20260509123046 17 190 14.5 37.0 0.00 7.19 1.80 71 1004.9
20260509122520 17 180 17.7 37.0 0.00 7.19 1.80 71 1004.8
20260509122025 17 151 12.9 30.6 0.00 7.19 1.80 70 1004.8
20260509121550 17 190 14.5 43.5 0.00 7.19 1.80 71 1004.8
20260509121028 17 222 17.7 43.5 0.00 7.19 1.80 70 1004.7
20260509120513 17 190 19.3 41.8 0.00 7.19 1.80 68 1004.8
20260509120011 17 203 12.9 37.0 0.00 7.19 1.80 69 1004.9
20260509115528 17 272 16.1 37.0 0.00 7.19 1.80 70 1004.8
20260509115026 17 173 14.5 40.2 0.00 7.19 1.80 70 1004.8
20260509114028 17 190 11.3 30.6 0.00 7.19 1.80 72 1004.7
20260509113532 17 222 16.1 29.0 0.00 7.19 1.80 71 1004.7
20260509113036 17 190 8.0 25.7 0.00 7.19 1.80 71 1004.7
20260509112525 17 190 9.7 32.2 0.00 7.19 1.80 71 1004.7
20260509112030 17 190 16.1 32.2 0.00 7.19 1.80 71 1004.6
20260509111547 17 190 12.9 37.0 0.00 7.19 1.80 71 1004.7
20260509111031 17 190 17.7 37.0 0.00 7.19 1.80 72 1004.6
20260509110555 16 282 14.5 30.6 0.00 7.19 1.80 72 1004.4
20260509110033 16 190 17.7 32.2 0.00 7.19 1.80 72 1004.6
20260509105528 16 227 16.1 35.4 0.00 7.19 1.80 73 1004.5
20260509105027 16 190 14.5 33.8 0.00 7.19 1.80 74 1004.4
20260509104551 16 190 14.5 33.8 0.00 7.19 1.80 74 1004.5
20260509104028 16 190 12.9 30.6 0.00 7.19 1.80 74 1004.4
20260509103533 16 190 14.5 29.0 0.00 7.19 1.80 75 1004.4
20260509103032 16 243 9.7 35.4 0.00 7.19 1.80 75 1004.4
20260509102527 16 257 14.5 35.4 0.00 7.19 1.80 75 1004.4
20260509102023 16 252 14.5 29.0 0.00 7.19 1.80 75 1004.3
20260509101529 16 190 12.9 27.4 0.00 7.19 1.80 76 1004.2
20260509101046 15 190 9.7 24.1 0.00 7.19 1.80 76 1004.2
20260509100531 15 288 6.4 16.1 0.00 7.19 1.80 78 1004.1
20260509100029 15 190 6.4 22.5 0.00 7.19 1.80 79 1004.0
20260509095522 15 190 12.9 22.5 0.00 7.19 1.80 78 1004.0
20260509095020 15 190 9.7 25.7 0.00 7.19 1.80 79 1003.9
20260509094545 15 190 9.7 25.7 0.00 7.19 1.80 81 1003.8
20260509094021 15 190 11.3 20.9 0.00 7.19 1.80 81 1003.8
20260509093526 15 255 8.0 19.3 0.00 7.19 1.80 82 1003.7
20260509093045 15 190 9.7 20.9 0.00 7.19 1.80 83 1003.7
20260509092535 15 190 8.0 20.9 0.00 7.19 1.80 84 1003.7
20260509092026 15 190 8.0 19.3 0.00 7.19 1.80 84 1003.6
20260509091524 15 190 4.8 29.0 0.00 7.19 1.80 85 1003.5
20260509091021 14 190 14.5 29.0 0.00 7.19 1.80 85 1003.4
20260509090511 14 190 19.3 27.4 0.00 7.19 1.80 85 1003.4
20260509090027 14 190 19.3 25.7 0.00 7.19 1.80 85 1003.3
20260509085521 14 190 4.8 19.3 0.00 7.19 1.80 85 1003.3
20260509085025 13 190 11.3 19.3 0.00 7.19 1.80 85 1003.2
20260509084528 13 190 6.4 16.1 0.00 7.19 1.80 85 1003.2
20260509084014 13 190 526.3 526.3 0.00 0.00 1.80 85 1003.1
20260509083511 13 190 1.6 20.9 0.00 7.19 1.80 85 1003.2
20260509083037 13 190 9.7 20.9 0.00 7.19 1.80 85 1003.1
20260509082525 13 190 12.9 20.9 0.00 7.19 1.80 86 1003.1
20260509082030 13 190 14.5 20.9 0.00 7.19 1.80 86 1003.1
20260509081515 13 190 6.4 19.3 0.00 7.19 1.80 86 1003.1
20260509081014 13 190 9.7 17.7 0.00 7.19 1.80 86 1003.0
20260509080539 13 190 12.9 19.3 0.00 7.19 1.80 86 1003.0
20260509080016 13 190 12.9 20.9 0.00 7.19 1.80 86 1003.1
20260509075629 13 190 14.5 20.9 0.00 7.19 1.80 86 1003.1
20260509075027 13 190 11.3 19.3 0.00 7.19 1.80 86 1003.1
20260509074531 13 176 12.9 19.3 0.00 7.19 1.80 86 1003.1
20260509074029 13 195 8.0 12.9 0.00 7.19 1.80 86 1003.1
20260509073521 13 177 4.8 11.3 0.00 7.19 1.80 86 1003.1
20260509072015 12 135 6.4 12.9 0.00 7.19 1.80 86 1003.1
20260509071519 12 172 3.2 8.0 0.00 7.19 1.80 86 1003.1
20260509071017 12 132 3.2 6.4 0.00 7.19 1.80 86 1003.0
20260509070030 12 167 0.0 4.8 0.00 7.19 1.80 86 1003.1
20260509065519 12 167 1.6 6.4 0.00 7.19 1.80 86 1003.1
20260509065044 12 168 4.8 8.0 0.10 7.19 1.80 86 1003.1
20260509064521 12 160 4.8 8.0 0.10 7.19 1.80 86 1003.1
20260509064026 12 154 3.2 6.4 0.10 7.19 1.80 86 1003.1
20260509063525 12 156 3.2 6.4 0.20 7.19 1.80 86 1003.1
20260509063030 12 159 4.8 6.4 0.30 7.19 1.80 86 1003.2
20260509062538 12 161 3.2 6.4 0.30 7.19 1.80 85 1003.1
20260509062028 12 178 4.8 6.4 0.30 7.19 1.80 85 1003.1
20260509061528 12 214 3.2 4.8 0.30 7.19 1.80 85 1002.9
20260509061032 12 247 1.6 4.8 0.41 7.19 1.80 85 1002.9
20260509060530 12 247 0.0 4.8 0.41 7.19 1.80 85 1002.9
20260509060028 12 249 3.2 8.0 0.51 7.19 1.80 85 1002.9
20260509055526 12 249 3.2 11.3 0.61 7.19 1.80 86 1002.9
20260509055051 12 239 4.8 11.3 0.71 7.11 1.78 86 1003.0
20260509054528 12 245 4.8 12.9 0.79 7.11 1.78 86 1003.1
20260509054024 12 232 8.0 17.7 0.89 7.11 1.78 85 1003.0
20260509053529 12 256 3.2 17.7 1.19 7.01 1.75 85 1003.1
20260509052609 12 215 11.3 20.9 1.80 6.91 1.73 85 1003.0
20260509052029 12 240 8.0 25.7 1.80 6.91 1.73 85 1003.2
20260509051514 12 224 11.3 25.7 1.80 6.91 1.73 85 1003.2
20260509051047 13 185 8.0 16.1 1.80 6.81 1.70 86 1003.2
20260509050531 13 205 8.0 16.1 1.80 6.81 1.70 86 1003.1
20260509050023 13 155 11.3 19.3 1.70 6.71 1.68 85 1002.8
20260509045547 13 144 11.3 20.9 1.60 6.60 1.65 85 1002.9
20260509045031 13 122 12.9 22.5 1.40 6.40 1.60 85 1002.9
20260509044530 13 171 11.3 17.7 1.30 6.30 1.57 85 1002.9
20260509044055 13 247 6.4 16.1 1.19 6.20 1.55 85 1003.0
20260509043513 13 190 8.0 14.5 0.61 5.59 1.40 85 1002.8
20260509043037 13 143 8.0 14.5 0.20 5.21 1.30 85 1002.8
20260509042521 13 157 6.4 12.9 0.10 5.11 1.27 85 1002.8
20260509042106 13 146 8.0 11.3 0.10 5.11 1.27 85 1002.9
20260509041538 13 173 4.8 8.0 0.00 5.00 1.24 85 1003.1
20260509041015 13 190 3.2 6.4 0.00 5.00 1.24 85 1003.2
20260509040520 13 195 1.6 14.5 0.00 5.00 1.24 85 1003.2
20260509040018 13 195 4.8 14.5 0.00 5.00 1.24 85 1003.3
20260509035534 13 175 8.0 14.5 0.10 5.00 1.24 85 1003.3
20260509035051 13 166 3.2 14.5 0.10 5.00 1.24 85 1003.3
20260509034027 12 134 4.8 16.1 0.10 5.00 1.24 85 1003.4
20260509033519 12 180 8.0 16.1 0.20 5.00 1.24 85 1003.5
20260509033016 12 181 9.7 16.1 0.20 5.00 1.24 85 1003.4